CZ-6A DEB

Satellite information

Favourite Embed

Satellite Type and Status

DEBRISIN ORBIT

Key statistics

Satellite CZ-6A DEB at a glance.

Uptime

969

Days in orbit

Revolutions

≈ 14.1

Per day

Orbit

SSO

Sun Synchronous Orbit

Inclination

98.8

Latest

Satellite identification and parameters

Extended collection of information and parameters for CZ-6A DEB.

Object identification

Identified? True

Debris? True

Object name: CZ-6A DEB

International designator: 2022-151NN

Object number (NORAD): 54612

Object ID (CCSDS): 54612

Country: PEOPLES REPUBLIC OF CHINA (PRC)

Current information (Y/N): Y

RCS size: SMALL

Orbital parameters

Period: 102.042 minutes

Inclination: 98.8213 deg

SMA: 7233.455 km

Apoapsis: 890.716 km

Periapsis: 819.924 km

RAAN: 187.9534 deg

Eccentricy: 0.0048934

Argument of periapsis: 247.1286 deg

Mean anomaly: 112.4715 deg

Mean motion: 14.11185464 rev/day

Mean motion (dot): 0.00000651 rev/day2

B* drag term: 0.00038101 1/REarth

Two-line elements (TLE)

Creation date: July 6, 2025, 6:05 p.m.

Reference frame: TEME

Reference center: EARTH

Epoch: July 6, 2025, 2:06 p.m. UTC

TLE line 0: 0 CZ-6A DEB

TLE line 1: 1 54612U 22151NN 25187.58813718 .00000651 00000-0 38101-3 0 9991

TLE line 2: 2 54612 98.8213 187.9534 0048934 247.1286 112.4715 14.11185464135618

Live tracking on map

Real-time ground track for satellite CZ-6A DEB.

In-orbit conjunctions

A list of the most updated potential collisions computed for object CZ-6A DEB.

Target Orbit TCA Probability of collision Miss distance Type
FENGYUN 1C DEB SSO 2025-05-27 15:37:15 0.0003053403 210.0 (m) DEBRIS
METEOR 2-8 DEB LEO 2024-09-26 22:26:35 0.000136639 293.0 (m) DEBRIS

Associated space launch

Chinese satellite reported for atmospheric/ocean/environmental/spatial parameter research purposes, details TBD.

CZ-6A DEB was lifted into orbit during the mission ‘Long March 6A | Yunhai 3’, on board a Long March 6A space rocket.

The launch took place on Nov. 11, 2022, 10:52 p.m. from Launch Complex 9A.

For more information about the launch, click the button.

Launch to space Long March 6A | Yunhai 3
Long March 6A | Yunhai 3

Agency: N/A

Status: Launch Successful

Launch date: Nov. 11, 2022, 10:52 p.m. UTC

Rocket: Long March 6A

Launch pad: Launch Complex 9A

Location: Taiyuan Satellite Launch Center, People's Republic of China

...

Latest news about this satellite

There are no fresh news available about this satellite. Check back as we update our databases every day.


Newsletter sign-up

Weekly statistics, charts and insights to help you stay on top of the space industry.